Theta_e
336 335 335 333 332 329 327 326 324 324 329 330 331 332 332 331 329 327 324 324 324 324 323 323 321 320 321 321 318 316 315 315 315 315 314 315 316 320 321 323 326 331 336 340 343 343 343 342 342 341 341 341 341 341 340 339 339 339 338 337 337 337 336 335 334 334 334 333 333 332 331 330 330 330 330 330 329 329 327 327 326 326 326 325 325
338 337 334 333 332 331 329 327 325 324 328 328 329 330 331 331 331 330 328 326 325 324 322 322 321 319 317 318 318 318 317 315 316 316 316 315 316 318 320 321 323 326 331 335 339 342 342 342 342 341 340 340 340 340 340 339 338 338 339 338 337 337 337 337 336 335 334 334 333 333 332 331 331 331 330 330 330 330 329 328 327 327 326 326 326
337 336 334 333 332 331 331 330 328 327 327 327 328 328 329 330 331 330 330 329 328 326 323 322 320 318 318 317 320 319 318 318 316 317 316 316 316 317 319 321 323 325 328 332 336 339 341 342 342 341 339 339 338 338 338 338 338 339 339 339 338 338 337 336 336 336 335 334 334 333 333 332 332 332 331 331 330 330 330 329 328 327 327 327 326
337 336 334 333 332 331 331 331 330 329 327 326 325 326 326 327 329 330 330 329 329 327 324 322 321 320 319 318 319 318 319 319 318 318 318 318 317 317 317 319 321 322 324 327 331 334 337 340 341 342 341 339 339 338 338 338 339 338 338 338 339 339 338 337 338 337 337 336 334 334 334 333 332 332 332 331 331 331 331 330 329 328 328 327 327
336 336 334 333 332 331 330 330 331 331 329 327 324 324 325 325 326 326 327 327 326 326 324 323 323 323 320 320 319 318 319 318 319 319 319 320 319 318 317 317 318 321 322 322 324 328 333 337 339 340 341 341 340 340 339 338 338 338 338 338 338 338 338 338 338 337 337 336 335 335 334 334 333 333 332 332 331 331 331 330 330 329 328 328 327
336 335 334 333 332 331 330 330 330 330 329 328 328 327 327 326 325 324 324 325 324 324 322 322 323 321 321 321 319 319 319 319 319 319 320 320 320 319 319 319 318 319 319 321 321 323 328 332 335 338 339 340 340 340 340 339 338 338 338 338 338 338 338 338 338 338 337 338 337 335 335 335 334 334 333 332 332 331 331 331 331 330 329 329 328
335 334 333 333 332 331 330 331 330 328 328 327 328 328 327 327 325 324 323 322 322 322 320 321 320 320 321 320 320 320 318 319 319 319 320 320 320 319 320 320 320 320 319 319 321 322 324 327 331 334 337 338 339 339 340 340 339 339 338 338 338 338 337 338 338 338 338 338 337 335 334 334 333 333 333 333 332 332 331 331 331 331 330 329 329
335 335 333 332 331 331 331 331 328 327 326 326 327 327 327 327 325 324 322 321 320 321 320 320 320 320 321 320 320 319 319 319 320 320 320 320 320 320 320 320 320 321 319 320 321 321 323 325 328 331 333 334 336 337 339 339 340 340 339 339 339 338 338 338 337 337 337 337 337 337 336 335 334 333 332 332 333 332 332 332 332 331 331 330 329
335 334 333 332 331 330 330 329 327 326 325 326 327 327 326 326 325 324 324 322 320 320 319 319 320 321 322 322 322 321 319 320 320 320 320 319 320 320 320 321 321 318 320 321 321 321 321 322 325 327 328 328 330 333 335 337 338 339 340 339 339 339 339 339 338 336 337 337 338 337 336 336 335 334 333 333 333 333 332 333 331 331 331 330 330
334 334 333 332 330 329 328 326 326 326 326 326 327 326 325 326 325 324 323 324 322 320 320 321 322 323 323 323 324 322 321 320 321 319 320 320 320 320 321 321 321 321 321 321 321 321 321 321 322 322 322 322 325 328 332 335 337 338 339 339 340 340 339 339 338 338 338 338 337 337 337 336 335 335 334 334 334 333 333 332 331 332 330 331 330
333 333 332 331 330 329 328 328 329 328 328 327 327 327 326 327 327 326 324 325 325 324 324 324 324 322 322 323 322 321 321 321 321 321 321 320 320 320 320 320 321 321 321 321 321 321 321 321 321 321 321 320 322 324 328 330 332 334 336 338 339 339 339 339 338 338 338 337 336 336 337 336 336 336 335 334 334 333 333 333 333 332 331 331 331
331 331 331 331 331 331 331 331 331 330 329 329 329 329 328 327 327 327 327 325 325 326 327 325 324 323 321 322 321 321 322 322 322 321 320 320 321 320 320 320 320 320 320 321 320 320 321 321 319 321 321 320 320 322 323 325 328 331 334 336 338 339 339 339 339 338 338 336 336 336 336 336 335 336 335 335 334 334 332 333 334 333 332 332 331
331 332 332 330 332 332 332 332 332 331 330 330 331 331 330 329 328 326 326 326 326 326 326 327 325 323 324 324 325 325 323 322 323 322 322 322 322 322 321 320 320 320 320 320 320 320 321 321 321 321 321 320 321 320 321 323 323 328 332 335 337 338 339 339 339 339 337 336 336 336 335 335 335 336 336 335 334 333 334 334 333 332 332 332 331
332 332 332 332 332 333 333 332 331 331 331 332 332 329 329 328 327 326 327 326 326 327 327 325 322 321 320 321 323 323 322 322 322 322 323 322 322 321 320 320 320 321 321 320 319 320 320 321 321 321 320 320 320 320 320 321 321 324 327 330 333 336 337 338 338 338 338 337 336 336 335 335 335 336 335 334 334 333 332 332 333 333 334 333 332
325 327 330 332 333 333 333 334 333 332 331 331 331 331 331 330 328 327 326 327 327 327 326 327 324 322 321 319 318 318 318 320 321 322 322 321 321 321 321 320 321 321 321 318 319 319 320 320 320 320 320 320 321 321 321 321 322 325 326 327 329 332 335 336 337 338 338 337 336 336 335 335 335 336 335 334 332 332 332 333 332 333 334 334 332
320 322 324 326 328 330 331 332 332 332 332 332 332 331 329 327 327 326 328 325 324 325 327 327 327 324 318 316 315 314 314 312 311 313 319 322 321 322 321 321 322 322 320 320 321 320 321 320 320 321 321 321 321 321 321 321 323 327 328 327 328 331 333 335 336 336 337 337 336 335 336 336 335 335 335 334 333 332 332 332 332 332 332 333 333
311 315 318 321 323 326 327 328 329 331 332 331 331 331 331 331 330 329 328 328 327 326 323 326 326 328 323 314 314 312 311 313 308 314 313 316 317 320 319 320 321 321 321 321 321 322 322 321 321 321 321 321 321 320 320 321 321 320 322 326 329 331 332 335 336 336 337 336 335 335 336 335 335 335 334 333 332 332 332 332 332 332 332 332 332
306 308 311 314 317 321 323 324 325 327 328 330 331 331 331 331 331 329 327 327 327 326 324 323 326 326 326 326 323 318 317 313 312 311 308 315 316 317 319 320 320 320 321 321 321 322 319 320 321 321 321 321 321 321 322 322 320 321 321 322 329 332 333 335 336 337 336 336 335 335 335 335 334 334 334 332 332 332 332 332 332 332 332 332 332
301 303 306 308 311 313 315 319 322 324 324 327 327 329 331 331 331 331 331 328 328 326 326 326 323 325 326 326 324 324 322 316 315 314 314 309 312 316 318 319 320 320 321 322 323 323 322 321 320 320 320 321 321 322 322 323 324 324 325 327 329 331 333 334 335 336 336 335 334 334 334 335 335 334 333 332 332 331 330 330 331 331 331 332 332
299 300 301 303 305 306 308 310 313 316 319 323 324 326 326 328 329 329 330 329 328 326 326 327 324 322 324 324 324 324 323 323 322 320 317 314 315 309 310 313 316 318 319 321 322 323 322 321 321 321 321 321 321 321 321 322 322 322 322 324 327 330 332 333 335 335 336 335 334 333 334 334 334 333 332 331 330 329 329 329 330 331 331 331 331
298 299 299 300 301 302 304 305 307 309 311 314 318 320 322 323 323 325 327 328 327 327 326 327 327 327 324 323 324 323 323 323 322 319 317 314 313 313 312 307 307 311 314 319 321 321 320 321 321 320 318 319 320 321 321 321 321 321 320 321 324 327 329 331 333 335 336 334 334 333 334 334 334 332 331 331 329 329 329 328 329 329 328 328 328
298 298 298 299 299 300 301 302 304 306 307 308 311 313 315 317 319 321 322 323 326 327 325 325 324 325 325 325 322 321 320 321 321 321 320 319 314 315 317 316 315 314 312 312 314 317 319 320 320 320 320 320 321 320 319 319 319 320 318 315 318 321 326 330 332 334 335 334 333 333 333 333 333 332 331 330 329 328 328 328 329 329 328 327 327
297 298 298 298 298 299 299 299 301 303 304 305 307 308 310 312 315 317 318 319 320 322 322 325 326 325 324 322 321 320 320 319 318 319 318 315 314 313 313 312 310 310 308 313 314 316 316 317 318 318 319 320 320 319 319 319 314 314 311 312 315 319 323 327 330 333 335 334 333 332 332 332 332 331 330 328 328 328 328 328 328 328 327 327 326
297 297 297 297 298 298 298 298 299 300 301 303 304 306 307 308 310 312 314 315 317 317 319 321 323 324 324 324 324 323 322 322 322 321 317 318 317 315 314 315 316 313 310 307 308 313 314 315 316 317 318 318 319 319 319 319 318 310 310 312 314 317 321 327 329 331 333 334 333 332 331 331 331 330 329 328 326 326 327 327 326 326 326 326 325
296 296 297 297 298 297 298 297 298 298 299 300 301 303 305 306 307 308 310 311 313 317 317 318 320 320 321 323 323 322 321 322 322 320 319 319 318 315 315 315 313 314 313 307 311 303 311 314 315 316 316 317 317 317 318 318 318 312 306 311 311 313 318 323 326 330 332 333 333 332 331 330 329 328 327 327 326 326 326 326 326 325 325 325 325
294 295 296 297 297 298 298 298 298 298 299 299 300 301 302 303 304 305 306 308 310 311 313 315 317 318 321 320 320 321 321 320 320 319 318 317 315 314 314 314 314 313 314 309 300 307 307 307 313 315 314 315 315 316 316 317 317 309 305 309 314 313 317 320 322 326 329 330 331 331 330 329 328 327 326 325 326 326 325 325 324 324 325 324 325
293 294 295 296 297 297 298 298 298 298 298 299 299 300 301 302 302 303 304 305 307 308 309 310 313 314 316 318 319 320 321 321 319 319 317 317 316 315 314 310 310 311 311 312 312 309 313 308 309 311 313 314 314 315 316 316 312 308 305 310 312 311 313 317 318 322 327 329 331 330 329 329 327 327 325 324 325 324 323 323 323 323 323 323 325
293 293 293 294 295 295 296 296 297 298 298 298 298 299 299 299 300 302 302 305 305 305 306 308 309 310 311 313 315 315 317 319 320 320 318 318 317 316 316 314 310 308 310 309 310 312 310 311 305 308 312 313 314 314 311 311 314 307 304 311 312 311 309 311 313 315 319 323 326 327 328 327 326 325 325 324 324 323 322 322 323 323 323 324 324
291 292 291 292 292 293 294 295 295 296 296 297 298 298 298 298 299 300 301 303 304 304 306 306 307 308 309 310 311 313 314 315 317 319 320 320 319 318 318 317 315 311 308 308 310 309 309 309 310 307 310 312 313 314 311 311 310 310 311 310 310 310 309 309 312 314 316 318 321 324 324 324 324 323 324 323 323 323 322 322 323 323 323 323 323
289 290 290 290 291 291 292 293 294 295 296 296 296 296 296 297 298 298 300 301 302 304 305 307 307 308 308 308 309 310 311 312 314 316 316 318 318 319 318 318 317 312 310 307 307 309 310 306 309 307 304 307 308 309 309 311 307 308 309 309 308 308 306 307 309 311 313 314 318 321 322 322 321 321 322 322 322 322 322 322 322 322 322 322 322
287 287 288 288 289 290 291 292 293 294 295 295 296 296 296 296 296 296 298 298 299 300 302 304 306 307 308 308 308 309 310 311 312 313 314 314 316 317 317 317 315 315 313 312 307 310 311 310 305 306 306 304 305 306 306 307 306 305 306 306 307 303 302 303 302 305 309 312 313 314 315 317 318 319 319 319 320 320 320 321 321 321 322 321 321
286 287 287 287 288 288 289 290 290 291 292 294 295 295 296 296 296 296 296 297 297 297 298 300 302 303 304 306 307 308 310 310 311 311 312 312 313 315 317 317 316 316 315 313 309 309 310 312 313 312 309 307 301 302 303 305 305 301 305 305 305 300 302 303 299 301 305 307 308 308 308 309 311 313 314 315 316 317 318 319 320 320 319 319 317
285 285 286 286 287 288 288 288 288 289 290 291 293 295 295 294 295 296 297 297 296 296 297 298 299 300 301 302 304 307 310 311 312 313 313 313 312 313 313 314 314 315 315 313 310 309 310 307 311 312 304 302 302 302 304 305 306 304 302 303 304 302 302 301 301 299 301 303 305 305 305 305 305 306 308 311 312 313 314 315 315 314 313 312 312
284 284 284 285 286 287 287 287 287 288 289 290 292 293 293 293 294 295 296 296 296 297 297 297 297 298 299 299 301 303 305 307 309 311 312 312 312 311 311 311 312 313 314 312 310 309 308 303 305 304 303 301 306 298 306 305 305 302 302 302 301 301 300 300 301 301 299 301 303 304 304 305 304 304 305 306 307 307 308 308 307 308 308 309 309
283 283 284 284 285 286 285 286 286 287 288 290 292 292 293 293 293 294 294 294 294 294 295 295 296 297 297 298 298 300 302 303 304 307 309 311 312 312 312 312 311 311 312 313 311 310 309 309 309 310 307 301 303 305 301 302 300 299 301 302 301 299 299 300 301 303 300 302 303 304 304 304 304 303 304 304 304 304 305 305 305 306 306 307 307
282 283 283 284 284 284 284 284 285 286 287 289 290 292 293 292 291 291 291 292 292 293 293 294 294 295 295 295 296 298 299 299 301 303 305 307 308 309 309 310 312 312 313 312 312 311 309 307 305 305 305 303 304 299 298 296 299 298 299 301 299 299 298 298 301 302 300 300 301 301 302 302 302 302 303 303 303 302 302 302 302 302 303 304 305
281 281 282 284 284 284 284 284 284 285 286 287 288 290 289 289 289 289 290 290 290 291 292 293 294 294 294 294 295 296 297 297 299 300 302 303 304 306 307 309 309 310 311 311 311 311 309 307 308 306 300 298 298 295 297 300 298 296 296 299 300 300 300 299 298 299 297 297 298 298 299 300 300 301 301 300 300 300 300 299 300 299 300 301 302
280 281 281 282 283 283 284 284 285 285 286 287 288 287 287 288 289 289 289 289 289 289 290 291 292 293 293 294 294 295 295 296 297 298 300 300 302 303 304 306 307 308 309 309 309 309 309 309 309 308 299 303 297 293 295 298 299 297 296 295 294 294 297 298 298 297 297 297 297 297 297 298 298 298 298 298 298 298 297 298 298 297 298 300 302
279 280 281 282 283 283 283 284 284 285 286 287 287 286 287 288 288 289 289 289 289 289 289 290 291 292 293 294 295 295 295 296 296 296 296 297 298 299 301 302 304 305 305 306 307 307 308 308 307 307 306 297 298 302 294 294 295 295 298 294 297 297 294 297 299 295 293 295 295 294 294 293 293 294 296 297 295 295 296 296 296 296 298 300 301
279 279 280 281 282 282 283 283 284 285 285 286 286 286 287 287 288 288 288 288 288 288 289 290 291 291 292 293 294 295 295 294 294 294 295 295 296 296 298 299 300 300 301 301 302 303 303 303 304 304 299 301 292 289 289 293 295 293 296 298 299 300 299 293 294 297 291 292 293 292 291 292 292 293 294 294 294 293 294 294 295 295 298 300 301
279 279 280 280 281 281 282 283 283 284 285 285 285 286 287 287 288 288 288 288 288 288 288 289 290 291 291 292 293 293 293 291 290 291 292 292 295 295 297 298 298 298 299 300 300 300 300 301 301 300 299 298 295 294 292 293 297 301 299 297 298 297 293 292 292 290 292 292 291 290 291 289 289 290 290 290 291 291 293 293 294 295 297 299 300
277 278 279 279 280 280 280 281 282 283 284 285 285 287 288 288 288 288 288 288 288 288 288 288 289 290 291 291 292 290 289 290 290 291 292 293 292 294 295 296 296 297 298 298 298 298 299 299 300 300 299 301 300 297 299 298 296 293 293 294 297 297 293 292 291 291 290 292 291 293 292 288 289 289 289 289 289 290 291 293 294 295 297 299 299
276 277 278 278 278 279 279 280 280 282 283 284 286 288 288 289 288 288 287 287 287 287 287 288 287 288 289 290 291 290 291 290 292 291 292 292 292 293 293 293 293 295 295 296 298 299 298 298 299 300 300 300 302 299 298 298 292 297 299 296 297 293 294 296 297 290 288 294 292 292 292 287 288 290 287 287 288 288 290 291 296 296 297 298 298
276 276 276 277 277 278 279 279 279 280 282 284 286 287 288 288 289 288 287 287 287 286 286 287 287 287 288 289 290 291 292 292 292 293 292 292 292 292 292 293 293 293 294 295 295 297 298 299 299 300 301 301 303 300 298 293 297 295 294 294 295 297 296 294 292 296 290 292 292 289 291 286 286 288 287 287 286 287 289 291 296 297 297 297 298
275 275 276 276 276 277 278 278 278 279 280 283 286 287 287 288 288 288 287 286 286 286 286 286 286 287 287 288 289 290 291 289 290 292 292 293 292 292 292 292 293 294 295 296 295 296 298 298 298 299 301 303 303 303 299 297 298 299 294 293 294 294 297 297 297 295 289 290 291 290 291 288 287 287 288 287 286 286 287 290 296 297 297 297 297
274 274 274 275 275 276 277 277 278 279 279 283 285 286 287 288 288 287 286 286 286 286 286 286 286 286 287 287 288 288 289 290 290 290 290 291 291 292 293 294 295 294 294 294 294 293 293 296 298 297 300 302 302 304 302 300 300 299 297 296 296 295 294 296 296 293 288 292 294 290 289 288 286 287 288 286 286 286 286 290 296 297 297 297 297
273 273 273 273 274 275 276 277 277 278 279 283 284 285 286 287 287 286 285 286 285 285 285 285 286 286 287 288 288 287 287 287 288 288 288 289 290 290 290 291 292 294 295 296 297 298 298 299 299 299 301 303 303 304 306 304 302 303 303 302 301 300 295 289 288 287 287 289 291 291 293 288 286 288 288 286 285 286 286 288 293 296 297 297 297
273 273 273 273 273 274 275 276 276 277 278 282 283 284 285 286 286 284 284 283 283 284 284 285 286 286 287 287 286 285 285 286 287 288 288 288 288 288 288 289 290 292 294 293 295 296 297 299 300 301 302 302 301 303 303 304 302 300 298 292 292 292 293 293 293 289 291 289 290 292 291 287 285 289 287 285 285 286 286 286 289 293 296 296 296
271 271 271 272 273 274 274 275 275 276 277 279 282 284 284 284 284 283 283 282 283 283 284 285 285 286 286 285 285 285 285 285 286 288 289 288 287 286 286 287 288 289 291 294 295 295 295 295 295 296 297 298 298 299 299 299 298 299 296 293 293 293 293 292 292 290 292 289 288 291 291 289 286 288 286 285 285 285 285 286 286 289 295 296 296
270 271 271 272 273 273 274 274 275 275 276 278 282 283 283 283 283 281 282 282 282 283 283 284 284 284 284 285 284 284 284 284 287 288 288 287 285 285 285 285 285 286 288 291 294 295 295 295 294 294 294 295 295 296 297 297 297 296 297 295 295 294 294 294 294 292 290 289 289 290 289 288 286 287 286 285 285 285 285 285 286 287 291 295 296
270 271 271 271 272 273 273 274 276 276 276 278 281 281 282 282 282 281 281 281 281 281 281 282 282 283 283 283 283 284 284 285 286 287 287 286 285 285 285 285 284 284 287 289 290 292 292 293 294 296 296 294 293 294 294 294 294 293 298 300 298 295 295 294 294 291 290 289 290 291 292 288 287 287 287 286 287 286 285 285 285 286 287 288 290
Wind_Speed
6 6 5 6 5 4 4 4 4 3 4 4 4 4 5 4 3 3 2 3 3 4 3 3 3 3 4 5 4 4 4 5 4 4 4 5 5 5 6 7 8 9 11 11 12 13 13 13 13 12 12 11 11 11 11 12 14 14 16 16 16 17 16 15 15 15 15 15 15 14 13 14 14 14 14 14 14 14 13 14 14 14 14 13 13
8 6 6 5 5 5 5 4 4 3 4 5 5 5 6 5 4 4 4 4 4 4 3 4 4 3 4 4 5 5 5 5 5 5 4 4 5 5 7 7 9 9 10 12 13 13 13 13 13 13 12 12 12 13 13 15 15 14 14 15 16 17 16 15 15 17 17 16 16 16 16 15 16 15 15 15 15 15 16 15 15 15 15 14 14
5 5 5 5 5 5 4 4 4 4 4 5 4 6 5 5 5 4 4 4 5 4 4 4 4 4 4 4 6 4 5 4 5 4 4 5 5 5 5 8 8 10 11 11 13 13 13 13 13 13 14 14 14 15 15 15 15 16 15 14 15 17 18 18 17 18 18 17 17 16 16 17 17 17 16 16 17 17 17 17 17 16 16 15 15
5 4 5 5 5 4 4 4 5 4 5 5 5 4 4 4 4 4 4 4 5 4 4 4 5 5 4 5 5 5 5 5 5 5 5 4 5 5 5 5 7 9 10 11 12 13 13 13 13 14 15 15 15 16 16 16 16 16 16 17 17 17 19 19 18 18 18 17 17 16 17 17 17 18 18 18 18 18 18 19 18 17 17 16 16
5 6 5 5 5 5 4 5 5 5 5 5 4 4 4 4 4 3 4 4 5 5 4 4 5 5 4 5 4 5 5 5 5 5 6 5 5 5 5 5 4 6 8 11 12 13 14 14 13 14 14 15 16 17 17 16 16 16 16 16 17 18 18 18 18 17 17 16 17 18 19 18 18 20 19 19 20 20 19 20 19 18 18 18 17
5 4 4 4 4 5 5 5 5 5 5 5 5 4 4 4 5 4 4 4 6 5 4 5 5 5 5 5 4 5 4 5 5 6 5 6 6 4 5 5 5 5 5 8 11 12 13 14 14 14 15 16 16 17 18 18 17 17 16 16 17 18 18 19 19 17 17 16 17 19 19 18 18 20 19 19 21 20 21 20 20 20 19 19 19
4 5 4 4 4 5 6 7 5 5 5 5 5 4 4 6 4 5 4 4 5 5 4 6 5 6 6 5 6 5 4 6 5 6 6 7 5 5 5 6 6 6 6 6 7 11 13 13 14 14 14 15 17 17 18 19 19 19 19 18 19 19 18 19 20 18 14 14 15 16 20 20 20 21 18 19 19 21 22 21 20 20 20 20 20
9 7 6 6 6 6 6 5 5 4 5 5 5 6 5 5 5 5 5 6 5 6 5 5 5 7 6 5 5 5 5 5 6 6 7 5 5 6 6 6 7 7 6 6 6 7 11 11 12 14 14 14 14 16 17 18 18 19 20 20 20 20 19 20 20 18 16 14 13 15 17 16 17 19 21 19 17 21 21 20 20 18 22 20 20
7 8 8 7 7 7 7 6 5 5 5 5 6 6 5 5 5 5 6 6 5 6 5 5 6 7 6 6 7 6 6 7 7 7 5 5 7 7 6 7 7 7 6 6 6 6 9 12 11 13 14 14 13 14 15 16 17 18 18 19 20 20 21 20 20 19 16 15 13 11 14 16 17 18 19 20 20 21 23 23 22 20 21 19 22
8 7 7 7 7 7 6 6 6 6 6 5 6 5 5 5 5 5 6 6 6 6 7 6 6 6 6 7 8 6 7 7 6 5 6 7 7 7 8 6 6 7 7 6 6 7 7 9 12 13 14 14 14 13 15 15 16 17 18 19 20 21 21 21 21 20 18 15 12 12 12 13 15 17 19 20 19 20 20 19 19 23 19 20 22
8 8 7 7 7 7 7 7 6 6 6 6 5 5 5 6 7 5 5 6 7 6 6 6 6 6 6 8 6 7 6 6 6 6 6 7 7 7 5 7 6 7 7 7 6 6 7 7 6 6 8 13 14 13 14 14 15 16 17 18 19 20 22 22 22 20 17 15 15 13 11 12 15 16 17 19 20 21 18 20 21 22 20 22 23
7 7 7 7 7 6 7 7 7 7 7 7 6 6 8 8 8 9 8 6 7 7 6 5 6 7 8 7 5 5 6 8 7 7 8 7 8 7 7 7 7 7 7 7 6 6 7 7 7 7 7 9 13 13 13 13 14 15 16 17 18 19 20 20 19 18 15 16 16 15 13 14 15 14 15 17 19 21 21 21 21 19 21 23 24
6 7 9 8 7 7 7 7 7 7 7 7 8 8 9 8 8 7 9 8 6 6 8 7 5 5 5 9 10 8 10 9 9 9 9 8 6 7 7 6 7 7 7 6 6 7 7 7 7 6 7 6 8 11 13 14 14 15 17 18 19 19 20 20 20 20 20 17 16 15 15 17 17 15 14 16 18 19 19 19 19 20 21 22 24
5 9 9 8 7 8 8 7 6 7 8 8 7 7 7 6 4 5 5 8 5 3 3 2 4 5 4 7 8 5 8 8 7 8 9 6 7 6 7 7 8 8 6 5 6 7 7 7 6 7 6 6 6 6 7 8 10 15 16 18 19 20 21 21 20 20 18 17 16 15 15 16 15 14 15 17 17 18 19 19 19 20 21 23 22
2 1 1 3 5 7 7 7 7 7 6 5 5 6 6 6 5 5 4 4 6 5 6 8 7 3 4 5 7 5 1 2 4 6 7 6 5 6 7 8 9 8 7 4 6 6 6 6 6 7 7 6 7 6 6 8 10 14 15 15 16 19 20 20 20 19 18 18 18 18 17 17 16 13 13 15 17 18 17 18 18 19 20 20 21
7 6 4 3 3 2 2 3 6 7 6 6 7 7 5 4 5 7 6 4 3 4 8 8 8 4 4 5 3 0 9 2 2 4 7 9 8 9 7 7 8 8 5 6 7 6 7 5 7 7 6 7 6 6 7 7 12 17 17 16 18 20 19 20 20 19 19 20 20 19 17 17 16 13 12 15 16 17 17 15 16 17 18 19 21
7 8 7 5 4 3 3 3 3 3 3 5 5 5 6 5 6 6 8 7 7 4 3 7 8 5 4 3 4 2 4 3 3 6 3 3 5 7 7 7 7 7 5 6 5 6 7 6 7 6 7 6 7 7 7 8 8 7 10 15 18 17 19 20 22 23 22 22 21 19 18 17 17 15 15 16 16 16 13 13 13 14 15 17 18
6 6 6 6 6 5 4 4 3 3 3 4 4 4 6 7 7 5 5 5 5 3 3 4 8 8 8 7 5 6 8 4 3 8 1 5 4 6 6 7 7 7 6 6 6 7 5 7 7 7 7 7 7 7 7 8 8 7 8 9 17 18 18 19 21 22 22 21 19 17 16 16 16 14 13 15 15 14 12 12 13 14 15 16 16
6 6 6 6 6 6 5 4 3 3 3 3 5 5 5 4 4 6 7 7 7 9 11 8 4 6 8 10 10 9 6 4 5 4 12 2 4 5 5 6 7 7 8 8 7 6 6 7 7 7 8 7 7 8 7 8 11 11 15 18 19 20 20 19 20 21 21 20 18 16 16 15 14 12 14 14 14 13 13 14 13 13 14 15 16
6 6 6 6 5 6 5 5 5 4 4 4 3 4 4 5 5 6 5 3 5 8 7 5 5 2 5 7 7 7 5 7 7 9 8 12 10 3 4 7 5 6 5 5 7 8 8 7 8 8 7 7 7 6 7 8 7 9 9 16 20 21 20 20 20 20 20 20 18 17 17 16 14 13 13 14 13 13 13 14 13 13 15 15 16
5 5 6 6 5 5 5 6 6 5 4 4 4 4 4 5 5 4 5 5 5 5 5 6 6 9 5 5 6 7 6 5 6 4 8 10 15 9 6 1 1 6 6 8 8 7 8 8 8 8 6 6 7 7 7 7 7 8 9 15 19 20 20 20 19 19 20 19 18 18 16 15 15 16 15 12 12 13 14 14 14 16 15 15 15
5 5 6 6 5 5 6 6 5 5 4 4 3 4 4 4 4 4 4 5 5 6 7 6 5 5 5 6 6 4 4 4 5 7 8 9 13 13 9 8 11 5 5 5 7 8 7 7 7 7 6 7 8 8 8 8 8 8 10 15 16 17 18 19 19 19 19 20 19 17 15 15 18 15 13 13 15 14 14 12 13 15 17 18 18
5 5 6 6 6 5 5 5 4 5 5 5 4 4 3 3 4 4 4 4 4 5 6 5 6 6 6 4 4 5 6 6 4 4 5 3 6 11 12 11 8 9 4 7 6 7 6 5 6 7 7 8 8 8 8 8 10 11 15 14 15 16 19 18 18 18 18 19 18 17 16 16 17 15 11 14 13 14 14 15 15 17 17 18 19
5 6 7 7 6 6 5 5 5 5 6 4 5 4 4 4 4 3 3 4 4 4 4 6 6 6 5 3 5 5 5 5 5 4 5 7 8 11 10 12 11 5 2 3 4 6 6 7 8 8 8 8 8 8 8 8 10 16 13 13 14 16 17 17 17 18 18 18 18 17 17 17 17 15 14 14 15 15 17 17 17 17 18 19 20
7 7 7 7 6 7 7 7 6 6 5 5 5 4 4 4 4 4 4 4 3 4 5 6 7 7 6 7 7 7 6 4 3 3 4 4 6 9 6 5 11 11 6 2 4 3 8 8 7 8 8 8 7 7 8 8 9 12 11 9 15 13 15 16 16 17 17 18 17 17 17 17 15 15 15 14 15 15 15 16 17 17 18 18 18
5 6 6 6 5 5 5 5 5 5 6 6 6 5 5 5 4 4 4 4 4 4 4 4 4 5 5 6 6 7 7 5 4 3 5 6 8 8 9 8 8 12 9 6 1 3 3 6 7 9 7 6 7 8 7 9 9 13 12 8 10 12 14 15 16 16 17 17 17 16 17 17 16 16 16 15 13 11 13 14 15 15 15 17 18
5 5 6 6 6 6 5 6 6 6 6 6 6 6 6 6 4 4 4 4 4 4 4 4 4 4 5 5 5 5 5 4 4 5 4 6 7 7 7 12 12 10 11 6 8 7 10 4 6 7 8 8 7 7 8 8 11 13 8 6 8 11 12 13 13 14 16 16 15 16 16 16 16 15 16 16 14 13 14 15 16 17 18 19 20
5 6 6 6 6 6 6 6 6 7 7 6 6 6 7 6 6 6 5 4 4 4 4 4 5 5 5 5 5 6 5 6 6 7 6 6 6 5 6 8 11 16 10 12 9 8 3 5 2 6 7 7 7 7 10 10 8 10 6 6 7 7 11 13 13 13 14 15 13 13 14 14 12 11 13 14 15 16 15 16 17 18 19 20 22
5 5 6 6 6 6 6 7 6 6 7 7 7 7 6 5 6 6 7 7 6 5 5 5 5 5 5 5 5 5 5 5 5 6 7 6 6 6 7 10 10 14 12 11 12 9 3 2 3 3 5 6 6 5 4 5 8 7 5 6 7 7 9 11 12 11 12 13 12 12 10 10 9 9 11 14 15 15 16 17 18 19 21 22 23
5 4 5 6 6 6 6 5 5 5 6 6 7 7 7 6 6 6 6 6 6 6 6 6 6 5 5 5 5 5 5 5 6 5 5 6 7 7 7 7 6 10 9 14 17 5 9 3 4 4 1 4 4 6 5 7 9 7 6 6 6 7 10 10 11 12 13 12 11 9 8 7 7 8 10 13 14 15 17 18 19 21 22 23 25
5 5 6 6 6 6 6 6 6 6 6 6 7 6 6 6 6 7 7 7 7 7 6 7 6 6 6 6 5 5 5 5 6 6 6 5 6 6 7 7 8 10 10 10 15 8 4 10 3 5 5 4 4 5 5 7 7 5 5 5 6 9 9 8 9 10 12 11 8 6 4 4 5 7 8 11 13 14 16 18 20 21 22 23 23
5 5 5 5 6 6 6 6 6 7 7 6 6 6 6 6 6 6 6 7 7 7 7 7 6 7 7 7 6 6 6 5 5 5 5 5 6 7 7 7 8 7 8 11 11 14 1 7 10 7 6 6 3 5 6 7 5 5 4 5 7 7 7 6 7 11 11 11 8 7 5 4 4 6 7 9 12 13 14 16 19 20 21 21 21
5 5 6 6 6 6 5 6 7 7 7 7 6 6 6 7 6 6 6 7 6 6 6 8 7 8 8 8 8 7 7 8 7 6 6 6 6 6 6 7 9 9 10 11 14 14 8 4 8 10 5 3 3 5 7 8 8 6 5 5 5 6 6 5 5 8 11 10 9 7 6 4 4 5 7 9 10 12 13 15 17 19 19 19 19
6 6 6 5 5 6 6 6 6 6 6 6 7 6 7 7 7 6 7 8 7 6 6 6 7 7 7 8 8 8 8 9 9 8 7 7 7 7 7 7 8 9 8 11 13 13 15 4 5 2 3 3 7 3 7 8 9 5 5 5 5 6 6 5 5 5 9 8 7 6 5 5 4 6 7 8 9 10 12 13 14 16 16 16 18
6 6 6 6 6 6 6 6 6 6 7 6 6 7 7 8 8 7 7 8 8 8 8 8 8 8 8 7 8 8 8 9 9 8 8 8 7 8 9 7 8 9 10 11 12 13 12 8 6 9 5 4 7 8 6 6 4 2 5 6 7 4 5 5 5 5 7 6 6 5 5 4 5 6 6 6 7 9 10 12 14 15 15 16 16
6 6 6 6 6 6 6 6 7 6 7 6 6 6 8 8 8 8 7 7 7 8 8 8 9 8 8 9 9 9 9 9 9 9 8 8 8 8 9 9 8 9 8 7 8 9 10 11 5 5 6 5 6 5 5 3 4 5 6 5 3 6 4 4 5 4 4 5 4 3 3 4 5 5 5 6 7 8 8 10 12 13 13 14 15
5 5 6 5 5 6 7 8 7 7 7 7 6 7 8 8 7 7 7 7 7 8 8 8 8 8 8 9 10 9 9 9 9 9 9 10 9 9 9 9 9 9 8 8 9 9 11 13 11 6 5 5 5 3 2 4 5 4 3 5 5 4 4 4 3 3 4 5 4 3 3 4 4 4 3 3 5 7 9 10 11 11 11 12 14
5 5 5 5 5 6 6 6 6 7 6 6 6 9 8 8 8 7 7 7 7 7 7 7 7 7 8 9 8 9 9 9 9 9 9 10 10 10 10 9 9 9 10 10 9 9 10 12 11 10 5 7 5 4 3 4 4 5 5 5 4 3 4 5 5 4 3 3 3 2 2 3 2 2 1 1 3 5 7 9 9 9 9 10 12
5 5 5 5 5 5 5 6 6 7 7 7 7 8 8 8 8 8 8 8 8 7 6 7 8 8 8 8 8 7 8 9 10 11 11 12 11 11 11 11 11 10 10 10 9 10 10 11 9 8 7 3 4 8 3 2 3 3 4 4 7 6 5 6 7 4 2 2 2 3 3 3 3 2 2 0 2 5 7 8 8 8 8 10 10
6 6 5 5 5 4 5 4 5 6 6 6 7 8 9 8 8 8 8 8 9 8 7 7 8 8 8 8 8 9 9 8 9 10 10 10 10 11 9 9 10 10 10 10 9 9 10 10 10 9 5 5 2 1 3 1 1 3 5 7 10 8 7 4 6 5 2 2 3 3 1 2 2 1 1 0 3 5 6 6 8 7 9 9 10
4 4 4 4 4 5 4 5 5 4 5 5 6 9 9 9 9 8 8 8 9 8 8 8 7 7 8 8 8 8 10 12 13 12 11 11 8 10 11 10 10 10 10 9 9 9 9 9 10 7 7 7 4 3 3 3 6 10 4 5 8 7 4 3 5 3 4 4 3 3 4 3 2 1 1 1 2 4 4 6 6 7 8 8 10
5 5 5 4 4 5 4 4 4 4 4 4 8 13 11 8 8 7 7 8 8 8 9 9 8 8 8 8 8 11 13 13 13 12 12 13 14 11 10 10 11 11 11 10 10 8 9 11 10 9 10 10 6 6 7 7 7 5 3 4 7 7 2 5 4 5 5 5 4 5 5 2 3 2 1 3 2 2 2 3 4 4 5 7 8
6 6 5 6 6 6 5 5 5 4 4 4 11 12 12 13 9 8 8 8 7 7 7 8 9 10 9 9 9 10 10 10 10 14 14 15 14 15 16 15 13 12 12 13 11 9 9 10 10 10 10 12 10 5 7 8 5 7 8 5 7 4 5 7 9 3 2 8 6 5 5 2 3 5 2 3 2 2 3 2 5 4 3 5 7
5 4 5 5 5 5 5 5 4 5 4 8 12 13 13 14 11 8 7 6 7 7 7 8 8 8 9 9 8 7 7 9 10 11 12 14 14 16 16 16 16 17 16 13 12 11 10 11 11 10 9 11 12 6 6 4 7 7 7 6 7 9 9 8 5 6 3 8 5 3 5 2 2 3 3 4 2 3 3 5 4 2 1 4 6
3 5 5 5 5 4 4 5 4 4 4 9 12 14 14 14 15 11 6 7 7 8 7 7 7 7 7 8 8 8 7 12 10 10 10 11 13 15 15 16 15 15 15 17 16 14 11 12 12 12 10 9 11 9 5 6 5 8 5 5 7 7 9 8 8 8 2 4 4 4 4 2 4 4 5 3 2 3 3 5 2 1 1 3 6
5 5 5 6 6 5 5 5 4 3 3 8 13 14 13 14 15 12 6 7 6 7 6 7 7 7 7 7 8 8 8 9 8 10 10 10 11 12 11 11 11 12 14 15 17 18 16 11 11 14 13 9 13 11 6 5 6 9 8 9 8 8 9 13 7 2 2 7 8 4 2 3 3 3 5 3 1 3 3 5 2 4 3 3 6
5 6 6 7 6 6 6 6 5 5 4 11 13 14 14 15 16 12 6 6 6 6 6 6 7 7 7 7 8 8 9 9 8 11 11 12 12 11 11 11 12 11 11 11 10 10 10 10 11 12 12 11 12 13 11 8 10 10 10 12 11 10 5 0 1 1 1 5 4 4 5 1 3 3 4 3 1 3 3 5 6 2 5 5 6
3 3 3 3 5 6 6 6 6 6 5 12 13 13 14 15 16 8 7 8 7 7 7 7 7 7 6 7 7 9 9 9 11 16 15 13 12 13 13 12 12 11 11 10 14 15 14 13 13 13 11 12 13 12 10 9 8 7 7 3 1 2 3 5 7 3 5 4 6 6 3 3 3 5 2 1 0 2 2 3 5 5 5 6 7
3 3 3 3 4 5 6 6 6 7 5 10 13 12 13 15 12 7 8 7 8 8 8 8 8 8 8 8 8 9 9 9 13 20 20 17 11 12 14 14 12 11 12 10 12 15 17 20 21 21 22 21 20 20 18 17 10 8 4 4 5 4 5 7 6 3 8 5 4 7 4 2 3 5 3 0 1 2 2 2 3 4 4 7 8
3 3 3 3 3 4 5 5 6 6 6 9 11 11 13 14 13 8 8 8 9 8 8 8 8 9 10 14 12 10 10 11 17 21 21 16 12 12 13 14 16 13 12 10 9 11 14 17 19 19 19 18 18 18 18 17 15 9 7 9 6 6 9 9 8 8 3 4 5 7 2 3 4 3 3 0 0 3 2 2 2 2 4 5 7
3 3 3 3 3 3 4 4 7 6 6 7 9 10 12 12 10 7 7 8 9 9 10 10 9 8 9 9 13 13 12 14 21 20 22 17 13 12 12 15 16 15 12 12 12 12 12 13 13 12 12 12 10 9 10 16 16 12 10 11 6 8 9 8 8 3 3 3 7 11 7 3 6 4 5 2 3 2 3 2 2 1 1 1 3
Wind_Direction
182 185 174 186 186 176 180 192 174 172 165 202 209 207 215 200 187 196 211 225 228 235 233 238 233 229 238 259 257 265 269 269 259 255 256 255 263 269 266 277 278 270 268 273 276 275 277 281 282 279 273 270 271 272 273 269 266 261 256 257 256 252 253 252 247 249 247 245 248 245 234 237 238 239 240 240 244 246 245 248 249 245 247 248 248
187 185 175 182 183 180 185 189 184 172 176 204 205 211 214 206 204 202 208 218 233 241 225 244 243 238 231 251 263 256 258 260 266 258 256 261 260 264 268 261 264 264 264 266 271 274 273 274 275 273 271 271 273 276 277 278 277 277 268 259 259 258 254 252 251 250 248 248 251 249 249 241 239 241 247 247 240 243 245 245 246 247 244 245 245
178 177 178 179 183 183 192 178 191 185 190 209 196 207 212 215 206 209 213 218 232 231 223 241 249 250 243 242 256 261 262 258 259 257 255 250 250 257 263 260 253 258 262 263 264 271 276 274 270 269 268 271 276 279 281 280 279 278 277 272 262 260 262 258 259 256 252 250 252 251 250 247 247 247 246 245 242 240 241 238 241 243 245 243 238
192 181 176 180 186 190 187 188 203 190 197 206 204 201 206 211 210 212 219 223 240 235 225 233 248 249 243 243 250 254 261 261 261 259 254 249 242 245 249 252 249 248 255 260 263 265 270 273 271 271 272 273 277 281 283 281 280 280 280 279 276 270 265 266 262 257 253 254 256 254 254 250 250 250 249 249 246 240 242 247 244 242 243 241 239
185 189 183 186 190 194 196 202 204 198 197 209 209 200 201 201 211 200 212 219 231 239 225 228 243 246 239 249 244 251 252 259 258 262 261 255 246 238 240 244 249 250 247 252 256 257 262 265 267 269 271 274 275 279 281 281 281 281 281 279 278 277 275 272 267 261 259 250 250 246 247 246 244 247 250 250 243 241 241 239 242 239 238 240 240
197 190 184 193 199 205 210 214 210 199 195 194 209 201 207 202 211 196 221 213 227 238 225 243 242 243 242 243 240 244 242 252 252 253 257 259 252 250 244 240 241 241 239 241 245 251 254 258 261 261 264 268 272 275 280 281 281 280 281 280 278 277 278 276 276 269 257 252 246 249 248 246 243 246 245 243 249 250 247 242 239 239 234 234 237
198 193 197 200 205 208 212 224 205 189 194 199 201 202 205 213 196 212 220 225 235 238 225 243 250 245 243 230 244 245 233 243 250 253 248 249 253 254 248 247 244 239 238 241 243 243 246 252 257 260 261 264 268 271 275 279 280 282 282 284 283 281 277 277 276 276 273 261 255 254 260 259 258 253 248 248 245 250 251 252 248 241 240 237 236
218 217 221 213 217 223 225 222 198 187 199 197 195 208 207 212 206 203 214 230 227 244 221 243 244 254 254 239 245 233 240 243 245 246 247 249 248 246 244 245 243 240 237 240 244 246 244 241 248 254 257 260 263 267 269 272 276 278 280 280 281 282 281 278 277 276 275 268 258 250 250 253 257 262 261 256 253 255 250 247 247 248 244 239 241
197 197 205 207 207 213 221 214 190 191 196 199 202 210 205 208 216 205 209 230 217 244 244 231 244 245 252 246 241 232 235 239 237 240 245 237 242 241 242 241 242 243 239 237 241 248 249 246 245 249 255 259 260 262 265 266 267 270 273 275 277 278 279 280 281 282 275 270 266 264 254 252 250 249 255 254 247 253 258 249 251 250 248 249 244
218 214 211 208 205 207 211 202 189 192 198 196 209 203 208 210 225 205 207 218 228 229 242 238 240 251 250 248 247 227 239 241 242 246 237 245 243 240 238 242 243 241 239 237 236 244 249 250 247 252 254 255 256 257 260 262 264 265 267 270 273 275 276 277 277 275 272 269 267 268 262 257 250 246 249 252 253 253 252 260 249 248 246 244 245
218 217 218 210 206 205 205 202 192 193 197 201 206 204 209 213 222 219 207 220 227 229 236 244 245 246 253 255 251 247 247 242 241 240 240 241 250 254 249 241 240 243 242 235 234 235 246 248 247 246 251 250 251 251 253 256 261 264 266 268 269 271 273 274 275 278 285 292 288 279 273 269 266 251 248 251 253 252 244 247 250 251 236 237 240
212 211 209 207 206 207 209 201 197 193 196 201 204 202 210 211 214 217 220 216 221 230 235 251 253 245 255 268 261 255 248 242 236 237 241 236 238 238 242 246 238 244 242 240 235 237 241 245 243 242 246 252 249 251 252 252 254 258 261 264 266 266 268 271 272 273 268 268 271 277 282 283 281 258 249 252 256 259 257 255 252 252 245 243 244
199 214 211 207 205 209 207 204 201 201 203 208 205 209 210 208 213 207 217 221 214 211 226 218 257 278 251 257 258 231 234 233 231 234 239 238 240 240 244 247 247 248 245 238 237 242 242 247 248 245 247 250 259 254 253 254 254 256 259 263 265 266 267 270 271 272 274 273 271 275 280 280 279 271 250 251 250 254 256 254 255 256 253 254 252
195 206 211 209 196 207 204 205 201 208 214 214 217 221 217 221 220 226 210 218 237 184 219 169 255 254 291 293 269 238 231 232 237 242 246 242 237 239 247 245 254 252 255 237 243 245 247 249 251 251 249 250 255 257 257 255 255 254 256 259 261 264 267 269 270 271 272 276 276 272 274 278 277 271 273 273 266 266 265 264 262 261 261 258 256
14 350 215 217 212 203 202 204 202 201 207 213 216 219 214 218 198 208 212 210 221 205 175 177 244 229 257 281 283 302 288 264 231 242 245 250 244 246 244 246 251 255 255 249 249 251 251 247 249 249 252 249 252 254 254 256 255 258 255 249 253 259 265 267 270 272 275 276 280 283 280 277 276 270 276 277 276 274 269 268 268 264 263 262 259
19 26 27 23 7 345 307 240 222 202 211 218 206 212 212 212 218 219 215 229 188 210 186 199 216 230 274 219 255 107 304 266 314 274 215 223 220 234 236 244 246 255 249 248 251 251 256 246 248 251 251 253 253 254 255 255 264 269 263 258 262 265 264 267 268 270 273 277 278 279 281 280 276 272 274 276 274 274 276 274 270 269 266 266 265
21 23 24 21 14 9 6 357 356 315 245 230 229 219 215 211 207 212 205 215 246 242 219 198 211 215 237 299 307 293 232 277 322 264 218 222 239 230 236 234 242 243 243 248 252 257 258 263 257 256 256 254 255 255 258 263 268 261 264 266 266 263 264 266 268 270 272 274 277 278 278 277 277 275 277 282 279 275 268 269 274 275 275 273 272
23 23 25 20 23 18 21 20 8 1 360 325 283 244 221 219 210 227 235 218 225 259 253 214 206 197 210 219 234 277 302 273 355 298 347 226 214 215 218 227 230 238 233 238 241 247 243 253 256 257 253 252 251 253 250 258 257 258 259 262 265 265 263 263 265 269 272 274 276 275 274 277 279 280 279 281 273 270 269 273 283 286 285 283 283
27 27 22 19 21 20 21 22 15 15 5 358 349 341 315 277 249 237 241 230 209 234 237 239 211 226 216 225 228 232 243 270 269 308 299 272 232 241 235 229 225 222 227 228 233 242 247 243 253 248 246 241 241 243 243 251 259 257 260 262 262 264 265 265 266 268 270 274 276 275 274 274 274 272 277 280 271 271 282 290 287 280 279 279 280
32 31 29 27 21 17 15 21 26 19 11 15 353 331 331 324 311 289 263 244 245 236 230 217 215 228 206 242 240 250 255 242 242 257 273 300 287 243 224 239 219 237 238 229 226 227 238 242 246 250 243 240 243 240 246 248 250 253 254 258 262 262 261 261 263 266 269 273 276 278 277 278 280 281 286 278 280 289 287 285 278 276 282 285 286
33 32 28 25 24 20 14 18 21 13 12 9 357 346 338 330 337 336 319 288 252 248 254 249 233 245 235 235 231 236 241 232 253 227 260 275 282 279 271 299 239 243 238 223 227 228 228 237 240 248 249 245 244 248 246 246 248 247 249 252 256 258 258 258 259 261 265 271 276 276 275 277 280 288 284 275 285 290 290 291 284 280 279 282 284
28 31 31 22 21 19 20 17 8 1 6 1 358 357 350 343 336 329 320 319 312 288 263 251 236 236 230 256 247 241 236 256 235 246 250 242 267 288 293 281 277 248 219 221 236 231 235 235 246 247 248 246 247 248 247 249 247 247 247 245 250 254 255 256 257 259 265 270 273 275 276 281 285 285 280 290 296 294 294 289 275 273 276 281 284
25 30 30 18 18 20 21 13 5 4 1 2 351 340 332 331 327 328 335 331 317 314 315 304 277 259 251 233 251 254 252 248 247 239 244 272 289 285 294 286 280 301 243 228 224 237 230 231 242 244 241 239 241 242 246 248 252 249 246 245 246 250 254 254 257 260 264 268 274 278 281 282 281 282 288 291 292 293 291 284 279 282 282 283 285
28 27 24 15 15 13 12 14 16 6 2 345 337 334 326 328 326 331 326 323 321 322 319 310 311 309 301 270 260 268 281 264 269 266 264 278 277 278 281 299 295 265 258 251 248 244 234 231 228 236 234 238 237 240 248 253 252 252 247 246 247 250 254 255 258 258 260 265 274 278 278 274 275 284 292 296 298 291 283 285 291 293 293 291 290
19 19 15 11 12 11 11 10 5 3 352 353 341 337 337 333 325 323 321 320 316 315 309 311 315 309 314 315 306 298 279 276 280 277 292 301 300 303 289 298 296 302 291 231 268 244 226 228 233 231 237 236 242 242 243 250 252 254 243 250 249 250 253 253 255 258 262 269 274 276 277 279 281 282 289 297 294 293 297 297 295 295 295 293 291
19 18 1 359 11 14 6 8 8 0 0 355 350 345 344 339 329 325 313 301 306 299 290 292 295 296 301 295 292 296 299 289 273 279 293 298 293 292 303 291 289 293 295 292 221 299 256 234 229 236 234 239 239 241 245 247 257 257 242 241 256 247 247 249 252 255 260 264 267 270 275 277 279 283 287 286 282 290 297 300 298 295 291 289 289
22 12 0 3 4 8 9 12 6 4 2 2 357 354 352 346 343 324 315 303 301 297 286 282 282 283 284 285 292 285 291 284 289 286 264 260 264 278 290 302 299 288 292 280 284 240 272 253 218 233 234 237 236 243 248 250 252 256 248 231 250 246 239 242 249 256 258 258 260 266 269 274 278 283 284 284 291 294 295 292 292 292 289 286 283
17 11 8 7 7 6 8 12 7 3 3 3 2 1 354 354 346 344 333 322 316 308 292 289 282 278 275 281 283 279 284 287 287 281 265 253 253 256 260 269 288 294 291 292 286 284 212 260 291 235 233 235 249 240 251 256 263 269 250 243 247 252 242 242 246 249 252 252 253 257 263 266 267 269 271 276 279 284 288 292 294 292 291 289 287
23 14 11 12 13 9 10 7 7 2 2 4 3 1 359 358 356 350 346 336 330 318 308 299 286 281 279 272 267 274 273 277 274 269 270 262 256 256 255 266 269 271 283 278 285 293 298 186 289 282 221 237 245 267 284 270 263 258 238 236 246 249 249 243 244 242 244 246 242 242 243 248 253 258 267 275 281 284 287 290 291 291 291 290 288
28 20 15 15 13 15 15 6 3 8 14 8 4 358 360 3 357 357 348 341 339 333 328 318 307 295 283 281 274 274 271 267 265 264 262 266 270 269 261 253 248 261 282 284 283 267 290 228 212 256 294 246 245 260 244 254 251 246 237 237 241 246 250 246 243 240 242 239 232 227 227 234 245 257 267 274 280 284 287 289 291 292 292 291 288
29 19 22 17 14 9 9 6 9 10 12 14 10 7 4 3 2 356 351 353 350 342 337 335 326 320 309 299 289 279 276 269 268 267 264 260 255 257 260 260 257 260 268 283 286 274 172 281 235 236 242 249 230 251 254 250 258 245 243 241 246 249 249 247 239 237 235 224 209 196 209 221 245 260 270 275 279 285 288 291 292 292 291 289 287
30 22 28 24 16 14 9 11 11 9 8 3 7 13 12 13 4 357 354 356 352 347 338 338 335 332 326 318 309 299 291 282 277 273 273 267 267 264 263 262 265 260 261 264 262 279 235 270 282 275 245 253 237 252 265 270 249 229 238 246 253 262 246 243 238 235 223 208 192 182 186 210 239 260 269 273 280 286 292 296 296 294 290 288 287
22 21 26 22 17 14 14 17 16 10 7 3 1 13 16 13 9 1 357 357 353 346 342 341 343 341 336 328 323 316 309 299 289 282 275 271 264 262 259 265 265 265 269 272 271 280 277 219 261 262 259 216 267 204 247 256 259 242 216 236 246 244 247 216 220 221 216 203 191 176 183 205 227 253 267 275 283 290 295 297 295 293 290 286 283
22 19 20 15 16 15 21 16 15 8 5 3 9 15 15 13 11 5 358 356 352 351 353 348 348 345 338 332 328 324 322 314 311 302 291 282 274 268 266 263 265 267 260 268 273 275 286 254 251 303 284 207 259 191 227 242 250 247 243 249 242 227 233 217 220 211 205 191 174 178 197 210 235 252 264 275 285 293 293 292 289 285 280 276 275
18 21 12 14 13 17 21 19 10 10 4 4 7 15 16 11 6 5 2 357 352 349 348 345 343 339 340 339 334 332 330 323 317 310 308 300 292 284 280 274 276 274 267 259 264 270 277 285 287 284 269 249 234 258 243 257 279 271 251 251 251 249 232 219 216 213 196 186 187 197 211 230 245 251 260 273 285 294 296 295 293 288 283 278 273
23 15 15 11 14 15 20 15 14 5 5 2 4 9 16 12 8 1 359 356 352 347 343 340 338 341 342 338 338 337 331 325 321 317 312 306 302 299 294 290 285 285 279 279 268 282 292 290 279 247 270 256 266 250 264 285 255 257 237 261 229 231 215 210 221 209 189 191 200 191 212 237 248 254 271 288 298 305 307 304 298 290 283 279 275
24 18 16 14 18 19 16 10 4 6 2 359 355 16 19 9 1 357 356 357 351 345 340 338 339 338 337 337 333 335 330 325 322 320 319 314 309 306 301 300 298 295 293 289 289 289 290 287 289 269 256 258 262 287 261 257 270 263 278 251 250 248 231 220 215 196 180 196 193 195 194 224 236 247 267 300 313 312 316 313 303 296 295 289 278
28 25 20 16 20 19 11 8 6 6 3 356 13 20 6 360 359 356 353 350 349 342 336 332 332 332 331 330 330 329 330 327 323 322 323 321 318 311 305 303 299 297 298 294 289 288 284 285 287 293 267 263 278 263 235 215 247 272 290 282 312 284 244 242 228 210 201 185 190 179 189 201 181 201 229 317 327 330 322 313 310 307 316 317 302
35 24 17 18 14 22 7 10 11 9 9 13 22 10 2 357 357 351 348 347 343 342 336 331 331 334 331 327 324 324 326 331 328 327 325 320 317 312 312 311 307 305 301 297 295 292 290 292 293 287 293 257 232 271 277 237 212 212 246 289 273 235 234 227 239 225 206 186 155 148 176 206 214 219 233 21 350 335 327 319 315 325 351 351 338
32 24 13 12 6 14 8 15 8 11 12 17 15 5 358 355 353 349 346 344 338 335 334 332 335 332 329 329 327 327 328 325 319 315 313 312 309 305 303 302 299 297 294 294 292 288 287 287 284 291 280 287 329 346 335 357 330 298 223 230 254 253 241 226 237 232 226 203 210 209 196 216 205 232 285 70 5 341 328 329 316 341 11 10 6
32 22 15 8 15 15 13 12 9 7 19 16 13 359 354 353 352 346 345 340 336 334 334 333 327 330 333 329 324 322 314 304 295 290 291 295 301 305 305 305 302 298 294 290 288 288 284 284 286 281 283 278 239 217 243 232 229 241 240 198 251 258 267 256 256 231 209 191 225 220 233 194 205 254 287 314 331 332 327 333 313 339 23 26 30
21 15 15 12 20 16 12 12 11 11 14 14 352 355 355 351 347 346 343 340 338 337 333 331 332 333 330 328 322 314 310 305 299 297 303 307 304 299 299 304 302 299 295 292 287 283 283 282 280 285 282 276 257 223 239 236 237 266 290 230 240 258 263 267 285 236 195 191 201 230 229 186 188 223 239 251 293 304 306 321 321 330 28 41 49
18 11 5 9 12 1 5 1 3 7 4 350 352 356 355 353 350 345 342 341 339 336 333 335 334 330 328 327 322 318 313 313 317 318 311 306 304 303 303 299 292 290 295 290 283 285 284 279 280 277 276 278 274 243 233 242 225 231 238 229 240 255 236 245 257 308 225 178 196 227 241 211 188 211 227 243 270 296 301 305 307 339 32 64 71
24 14 12 11 359 352 353 353 354 349 347 339 352 353 354 353 351 347 341 339 337 336 336 332 326 324 321 321 321 319 318 319 318 315 309 304 304 303 302 300 298 292 281 272 280 281 276 281 279 275 278 274 279 251 241 232 246 246 239 229 227 227 236 232 233 237 243 176 179 185 257 212 231 211 209 239 260 267 281 300 318 338 2 96 93
9 16 8 2 356 349 346 348 348 338 341 331 348 350 349 350 350 351 345 340 335 332 323 317 315 317 315 315 316 320 321 319 315 312 310 311 309 305 301 299 295 289 289 284 271 260 269 268 273 274 271 283 279 265 215 218 215 239 231 229 236 234 234 239 234 233 212 164 137 194 239 217 174 202 217 228 260 276 292 306 318 146 215 134 120
11 6 1 357 348 347 343 339 332 331 329 330 346 346 346 346 349 350 338 332 323 317 315 313 314 309 310 312 314 315 316 318 313 312 313 310 309 310 311 308 300 295 291 284 282 276 264 254 260 266 271 268 273 280 261 234 234 237 222 232 229 231 230 230 240 222 185 172 179 163 241 232 195 181 228 224 239 276 272 297 306 168 182 185 146
3 357 353 347 339 334 332 329 328 334 331 338 345 344 345 346 346 348 335 331 324 316 313 309 304 304 306 310 310 309 312 313 312 313 314 313 312 309 304 302 300 299 293 290 288 284 280 266 256 258 265 260 262 268 272 255 238 243 230 236 232 231 243 34 41 145 155 210 176 139 240 192 154 181 223 187 241 269 281 295 317 214 187 183 163
355 346 343 328 324 322 320 322 324 327 330 339 340 342 345 347 346 344 343 335 329 320 313 308 305 303 304 307 311 308 308 309 309 313 314 316 315 312 308 302 300 297 290 284 281 280 277 276 274 271 268 265 262 263 267 269 262 258 268 290 68 125 178 221 234 204 225 206 193 172 222 228 184 187 198 129 307 247 287 293 302 322 212 188 169
0 352 329 323 312 314 314 316 317 315 328 328 334 341 347 347 348 345 339 333 325 320 316 315 315 315 315 316 313 310 308 308 309 317 320 323 316 312 310 306 302 298 295 295 287 283 282 278 273 270 271 272 272 274 272 266 256 245 236 235 231 177 197 228 235 208 233 180 206 201 212 233 177 182 151 164 181 262 266 272 291 313 262 181 164
352 335 314 315 310 302 308 311 308 310 320 317 329 343 346 347 348 342 333 329 322 319 320 323 323 317 314 314 314 312 311 307 314 319 321 323 314 310 311 310 307 302 295 297 299 293 288 284 281 278 275 274 273 271 270 266 256 228 201 230 218 180 221 221 230 222 223 168 205 170 182 221 140 159 119 32 3 252 237 258 285 296 311 190 170
331 313 315 310 302 300 288 289 297 301 301 306 332 339 342 343 344 337 332 323 325 329 328 323 320 315 313 311 309 309 310 314 318 320 319 319 311 307 308 307 305 298 293 300 301 305 311 306 298 297 290 278 269 260 259 258 253 232 220 231 214 197 224 224 225 214 233 243 204 169 187 198 149 193 142 124 244 238 177 244 271 297 286 232 169